Tracking 29781 objects as of 15-Oct-2024
HD Live streaming from Space Station
objects crossing your sky now

SL-8 DEB

Track SL-8 DEB now!
10-day predictions


NORAD ID: 24818
Int'l Code: 1977-087C
Perigee: 941.5 km
Apogee: 989.8 km
Inclination: 83.0 °
Period: 104.2 minutes
Semi major axis: 7336 km
RCS: 0.0052 m2 (small)
Launch date: September 13, 1977
Source: Commonwealth of Independent States (former USSR) (CIS)
Launch site: PLESETSK MISSILE AND SPACE COMPLEX (PKMTR)

Note: This is SATELLITE DEBRIS
Your satellite tracking list
Your tracking list is empty




NASA's NSSDC Master Catalog

Two Line Element Set (TLE):
1 24818U 77087C   24288.21039640  .00001312  00000-0  12128-2 0  9994
2 24818  82.9714 189.9872 0032959 346.6178 167.1914 13.81516396365245
Source of the keplerian elements: AFSPC